TimeMDT,TemperatureF,Dew PointF,Humidity,Sea Level PressureIn,VisibilityMPH,Wind Direction,Wind SpeedMPH,Gust SpeedMPH,PrecipitationIn,Events,Conditions,WindDirDegrees,DateUTC
12:14 AM,57.2,39.2,51,30.24,10.0,SE,5.8,-,N/A,,Clear,130,2013-07-05 06:14:00
12:34 AM,57.2,41.0,55,30.24,10.0,Calm,Calm,-,N/A,,Clear,0,2013-07-05 06:34:00
12:53 AM,57.2,41.0,55,30.23,10.0,Calm,Calm,-,N/A,,Clear,0,2013-07-05 06:53:00
1:14 AM,53.6,39.2,58,30.23,10.0,NW,5.8,-,N/A,,Clear,310,2013-07-05 07:14:00
1:34 AM,53.6,39.2,58,30.23,10.0,NW,4.6,-,N/A,,Clear,320,2013-07-05 07:34:00
1:54 AM,53.6,39.2,58,30.22,10.0,NNW,6.9,-,N/A,,Clear,340,2013-07-05 07:54:00
2:13 AM,53.6,39.2,58,30.22,10.0,NW,8.1,-,N/A,,Clear,320,2013-07-05 08:13:00
2:34 AM,51.8,39.2,62,30.21,10.0,NW,4.6,-,N/A,,Clear,320,2013-07-05 08:34:00
2:53 AM,53.6,39.2,58,30.22,10.0,NW,6.9,-,N/A,,Clear,310,2013-07-05 08:53:00
3:14 AM,53.6,41.0,62,30.22,10.0,North,5.8,-,N/A,,Scattered Clouds,360,2013-07-05 09:14:00
3:34 AM,55.4,39.2,54,30.22,10.0,NNW,5.8,-,N/A,,Clear,340,2013-07-05 09:34:00
3:53 AM,55.4,39.2,54,30.21,10.0,North,3.5,-,N/A,,Clear,360,2013-07-05 09:53:00
4:13 AM,55.4,39.2,54,30.21,10.0,North,4.6,-,N/A,,Clear,360,2013-07-05 10:13:00
4:34 AM,55.4,39.2,54,30.21,10.0,NNW,4.6,-,N/A,,Clear,340,2013-07-05 10:34:00
4:54 AM,55.4,39.2,54,30.21,10.0,NNW,6.9,-,N/A,,Clear,340,2013-07-05 10:54:00
5:13 AM,53.6,39.2,58,30.21,10.0,NNW,3.5,-,N/A,,Clear,330,2013-07-05 11:13:00
5:34 AM,53.6,39.2,58,30.21,10.0,NW,6.9,-,N/A,,Clear,320,2013-07-05 11:34:00
5:53 AM,53.6,39.2,58,30.22,10.0,NNW,5.8,-,N/A,,Clear,330,2013-07-05 11:53:00
6:14 AM,53.6,39.2,58,30.24,10.0,NNW,4.6,-,N/A,,Mostly Cloudy,330,2013-07-05 12:14:00
6:34 AM,57.2,41.0,55,30.24,10.0,NNW,6.9,-,N/A,,Mostly Cloudy,340,2013-07-05 12:34:00
6:53 AM,59.0,41.0,51,30.22,10.0,Calm,Calm,-,N/A,,Mostly Cloudy,0,2013-07-05 12:53:00
7:13 AM,57.2,46.4,67,30.23,10.0,West,3.5,-,N/A,,Mostly Cloudy,280,2013-07-05 13:13:00
7:34 AM,57.2,44.6,63,30.24,10.0,NW,6.9,-,N/A,,Mostly Cloudy,310,2013-07-05 13:34:00
7:54 AM,59.0,42.8,55,30.24,10.0,NW,5.8,-,N/A,,Scattered Clouds,310,2013-07-05 13:54:00
8:14 AM,62.6,41.0,45,30.24,10.0,NW,8.1,-,N/A,,Clear,310,2013-07-05 14:14:00
8:33 AM,62.6,41.0,45,30.24,10.0,NW,6.9,-,N/A,,Clear,320,2013-07-05 14:33:00
8:54 AM,62.6,41.0,45,30.24,10.0,Calm,Calm,-,N/A,,Clear,0,2013-07-05 14:54:00
9:14 AM,62.6,42.8,48,30.24,10.0,Calm,Calm,-,N/A,,Clear,0,2013-07-05 15:14:00
9:34 AM,66.2,42.8,43,30.24,10.0,SW,3.5,-,N/A,,Clear,220,2013-07-05 15:34:00
9:54 AM,66.2,44.6,46,30.23,10.0,SE,3.5,-,N/A,,Clear,140,2013-07-05 15:54:00
10:14 AM,68.0,44.6,43,30.22,10.0,South,6.9,-,N/A,,Clear,180,2013-07-05 16:14:00
10:34 AM,68.0,44.6,43,30.22,10.0,South,5.8,-,N/A,,Clear,170,2013-07-05 16:34:00
10:54 AM,69.8,42.8,38,30.21,10.0,South,8.1,-,N/A,,Clear,180,2013-07-05 16:54:00
11:14 AM,69.8,44.6,40,30.21,10.0,South,9.2,-,N/A,,Clear,170,2013-07-05 17:14:00
11:34 AM,71.6,42.8,35,30.20,10.0,SSE,10.4,-,N/A,,Clear,160,2013-07-05 17:34:00
11:53 AM,73.4,42.8,33,30.19,10.0,South,9.2,-,N/A,,Clear,180,2013-07-05 17:53:00
12:14 PM,71.6,42.8,35,30.19,10.0,SE,8.1,-,N/A,,Clear,140,2013-07-05 18:14:00
12:34 PM,75.2,44.6,34,30.19,10.0,SSE,9.2,-,N/A,,Clear,160,2013-07-05 18:34:00
12:54 PM,77.0,42.8,29,30.17,10.0,SE,8.1,-,N/A,,Clear,140,2013-07-05 18:54:00
1:14 PM,75.2,42.8,31,30.17,10.0,SSE,8.1,-,N/A,,Scattered Clouds,160,2013-07-05 19:14:00
1:34 PM,78.8,42.8,28,30.16,10.0,South,8.1,-,N/A,Thunderstorm,Thunderstorm,180,2013-07-05 19:34:00
1:53 PM,77.0,42.8,29,30.15,10.0,SSW,8.1,-,N/A,Thunderstorm,Scattered Clouds,200,2013-07-05 19:53:00
2:14 PM,77.0,44.6,32,30.14,10.0,SW,17.3,21.9,N/A,,Mostly Cloudy,220,2013-07-05 20:14:00
2:34 PM,73.4,48.2,41,30.14,10.0,SSW,10.4,-,N/A,Thunderstorm,Thunderstorm,210,2013-07-05 20:34:00
2:53 PM,68.0,51.8,56,30.15,5.0,South,9.2,-,N/A,,Mostly Cloudy,180,2013-07-05 20:53:00
3:14 PM,69.8,48.2,46,30.15,10.0,SSE,4.6,-,N/A,Thunderstorm,Thunderstorm,150,2013-07-05 21:14:00
3:34 PM,71.6,50.0,46,30.15,10.0,SE,8.1,-,N/A,Thunderstorm,Mostly Cloudy,130,2013-07-05 21:34:00
3:53 PM,69.8,50.0,49,30.14,10.0,WSW,6.9,-,N/A,,Mostly Cloudy,250,2013-07-05 21:53:00
4:13 PM,71.6,50.0,46,30.13,10.0,West,3.5,-,N/A,,Scattered Clouds,270,2013-07-05 22:13:00
4:34 PM,73.4,50.0,44,30.13,10.0,SE,13.8,-,N/A,,Clear,130,2013-07-05 22:34:00
4:54 PM,69.8,51.8,53,30.13,10.0,South,5.8,-,N/A,,Scattered Clouds,190,2013-07-05 22:54:00
5:14 PM,69.8,51.8,53,30.12,10.0,ESE,11.5,-,N/A,,Scattered Clouds,120,2013-07-05 23:14:00
5:34 PM,69.8,50.0,49,30.12,10.0,ESE,10.4,-,N/A,,Clear,120,2013-07-05 23:34:00
5:54 PM,69.8,50.0,49,30.12,10.0,East,8.1,-,N/A,,Clear,100,2013-07-05 23:54:00
6:14 PM,69.8,48.2,46,30.11,10.0,ESE,17.3,-,N/A,,Clear,120,2013-07-06 00:14:00
6:34 PM,69.8,48.2,46,30.11,10.0,ESE,13.8,-,N/A,,Scattered Clouds,120,2013-07-06 00:34:00
6:54 PM,69.8,48.2,46,30.12,10.0,SE,16.1,-,N/A,,Scattered Clouds,130,2013-07-06 00:54:00
7:14 PM,68.0,48.2,49,30.13,10.0,SE,16.1,20.7,N/A,,Clear,130,2013-07-06 01:14:00
7:34 PM,68.0,48.2,49,30.14,10.0,SSE,11.5,-,N/A,,Clear,160,2013-07-06 01:34:00
7:54 PM,66.2,48.2,52,30.15,10.0,SSE,10.4,-,N/A,,Clear,150,2013-07-06 01:54:00
8:14 PM,62.6,48.2,59,30.16,10.0,SSE,4.6,-,N/A,,Clear,150,2013-07-06 02:14:00
8:34 PM,62.6,48.2,59,30.17,10.0,East,4.6,-,N/A,Thunderstorm,Thunderstorm,100,2013-07-06 02:34:00
8:53 PM,60.8,50.0,68,30.18,10.0,ENE,6.9,-,N/A,,Scattered Clouds,60,2013-07-06 02:53:00
9:14 PM,62.6,48.2,59,30.19,10.0,ESE,8.1,-,N/A,,Clear,120,2013-07-06 03:14:00
9:34 PM,60.8,48.2,63,30.20,10.0,ESE,4.6,-,N/A,,Clear,110,2013-07-06 03:34:00
9:54 PM,59.0,48.2,67,30.21,10.0,ESE,9.2,-,N/A,Thunderstorm,Clear,110,2013-07-06 03:54:00
10:13 PM,59.0,46.4,63,30.22,10.0,SE,6.9,-,N/A,,Clear,140,2013-07-06 04:13:00
10:34 PM,59.0,46.4,63,30.23,10.0,SSE,3.5,-,N/A,,Clear,160,2013-07-06 04:34:00
10:54 PM,59.0,46.4,63,30.23,10.0,Calm,Calm,-,N/A,,Clear,0,2013-07-06 04:54:00
11:14 PM,55.4,48.2,77,30.23,10.0,North,4.6,-,N/A,,Clear,10,2013-07-06 05:14:00
11:33 PM,55.4,48.2,77,30.24,10.0,NNE,4.6,-,N/A,,Clear,20,2013-07-06 05:33:00
11:53 PM,55.4,48.2,77,30.24,10.0,NNE,4.6,-,N/A,,Clear,30,2013-07-06 05:53:00